Flag for Germany Weather past 2 weeks in Duisburg, North Rhine-Westphalia, Germany

Now
59 °F

Passing clouds.


Feels Like: 60 °F
Forecast: 59 / 78 °F
Wind: 3 mph from West

Location: Duesseldorf

Current Time: Jul 31, 2014 at 4:00:34 AM

Latest Report: Jul 31, 2014 at 3:20 AM


Visibility: N/A

Pressure: 30.01 "Hg

Humidity: 88%

Dew point: 55 °F

Location of DuisburgLocation

Historic Weather in Duisburg — Graph

°F

Duisburg temperature yesterday

Maximum temperature yesterday: 75 °F (at 2:50 PM)
Minimum temperature yesterday: 64 °F (at 4:50 AM)
Average temperature yesterday: 69 °F

Past Weeks' High & Low Weather Summary

 TemperatureHumidityPressure
High93 °F (Jul 19, 3:50 PM)100% (Jul 16, 6:20 AM)30.18 "Hg (Jul 16, 6:20 AM)
Low57 °F (Jul 26, 5:50 AM)23% (Jul 19, 4:50 PM)29.77 "Hg (Jul 19, 10:50 PM)
Average72 °F69%29.95 "Hg
* Reported Jul 16 2:20 AM — Jul 31 2:50 AM, Duisburg, Weather by CustomWeather, © 2014

Note: Actual official high and low records may vary slightly from our data, if they occured in-between our weather recording intervals... More about our weather records

Advertising

Duisburg weather history for previous 24 hours

 ConditionsComfort  
Time TempWeatherWind HumidityBarometerVisibility
2:50 AM
Jul 31
61 °FPassing clouds.2 mph83%30.01 "HgN/A
2:20 AM61 °FPassing clouds.3 mph83%29.98 "HgN/A
1:50 AM63 °FPassing clouds.6 mph77%29.98 "HgN/A
1:20 AM63 °FPassing clouds.5 mph77%29.98 "HgN/A
12:50 AM63 °FPassing clouds.6 mph77%29.98 "HgN/A
12:20 AM63 °FPassing clouds.7 mph83%29.98 "HgN/A
11:50 PM
Jul 30
64 °FClear.7 mph78%29.98 "Hg10 mi
11:20 PM66 °FClear.8 mph73%29.98 "Hg10 mi
10:50 PM66 °FClear.7 mph73%29.98 "Hg10 mi
10:20 PM68 °FScattered clouds.7 mph69%29.95 "HgN/A
9:50 PM68 °FPassing clouds.5 mph69%29.95 "HgN/A
9:20 PM70 °FScattered clouds.8 mph64%29.95 "HgN/A
8:50 PM70 °FPartly sunny.8 mph64%29.92 "HgN/A
8:20 PM72 °FPartly sunny.9 mph61%29.92 "HgN/A
7:50 PM72 °FScattered clouds.6 mph61%29.92 "HgN/A
7:20 PM72 °FPartly sunny.5 mph57%29.92 "HgN/A
6:50 PM72 °FPartly sunny.6 mph61%29.92 "HgN/A
6:20 PM72 °FPartly sunny.8 mph57%29.92 "HgN/A
5:50 PM72 °FPartly sunny.8 mph57%29.92 "HgN/A
5:20 PM72 °FPartly sunny.8 mph61%29.92 "HgN/A
4:50 PM72 °FPartly sunny.7 mph61%29.92 "HgN/A
4:20 PM72 °FPartly sunny.6 mph57%29.92 "HgN/A
3:50 PM72 °FPartly sunny.9 mph61%29.92 "HgN/A
3:20 PM72 °FPartly sunny.12 mph61%29.92 "HgN/A
2:50 PM75 °FPassing clouds.8 mph50%29.89 "HgN/A
2:20 PM73 °FPassing clouds.8 mph53%29.92 "HgN/A
1:50 PM73 °FPassing clouds.10 mph53%29.89 "HgN/A
1:20 PM72 °FScattered clouds.12 mph53%29.89 "HgN/A
12:50 PM72 °FScattered clouds.12 mph57%29.89 "HgN/A
12:20 PM72 °FScattered clouds.14 mph57%29.89 "HgN/A
11:50 AM72 °FScattered clouds.10 mph61%29.89 "HgN/A
11:20 AM70 °FPartly sunny.12 mph60%29.89 "HgN/A
10:50 AM68 °FPartly sunny.10 mph64%29.89 "HgN/A
10:20 AM68 °FPartly sunny.10 mph69%29.89 "HgN/A
9:50 AM66 °FPartly sunny.9 mph78%29.89 "HgN/A
9:20 AM64 °FBroken clouds.9 mph83%29.89 "HgN/A
8:50 AM64 °FBroken clouds.8 mph83%29.89 "HgN/A
8:20 AM64 °FBroken clouds.10 mph83%29.86 "HgN/A
7:50 AM64 °FPartly sunny.9 mph83%29.86 "HgN/A
7:20 AM64 °FBroken clouds.9 mph83%29.86 "HgN/A
6:50 AM64 °FPartly cloudy.9 mph83%29.86 "HgN/A
6:20 AM64 °FPartly cloudy.10 mph83%29.86 "HgN/A
5:50 AM64 °FPartly cloudy.9 mph88%29.83 "HgN/A
5:20 AM64 °FPartly cloudy.8 mph88%29.83 "HgN/A
4:50 AM64 °FPartly cloudy.12 mph88%29.83 "HgN/A
4:20 AM66 °FPartly cloudy.12 mph83%29.83 "HgN/A
Weather by CustomWeather, © 2014

See weather overviewHow to use our weather pages